This demonstration page uses our WeatherBlox Daily Observations layout. Learn more.

Left ArrowRight Arrow

41.55636, -103.73856

Hourly Observations for July 7, 2017

Temp ( °F °C ) Dew Point ( °F °C ) Humidity (%) Winds ( mph kmh ) Pressure ( in mb ) Visibility ( mi km ) Precip ( " mm )
12:53 am 00:53 Clear 72 22.2 53 11.7 52 52 NNE 21 33 30.07 1018 10 16 0.00 0.00
1:53 am 01:53 Cloudy 71 21.7 54 12.2 55 55 VRB 5 7 30.11 1020 10 16 0.00 0.00
2:53 am 02:53 Clear 69 20.6 54 12.2 59 59 SSE 6 9 30.11 1020 10 16 0.00 0.00
3:53 am 03:53 Clear 63 17.2 54 12.2 73 73 N 5 7 30.11 1020 10 16 0.00 0.00
4:53 am 04:53 Clear 61 16.1 54 12.2 78 78 Calm 30.12 1020 10 16 0.00 0.00
5:53 am 05:53 Sunny 61 16.1 55 12.8 81 81 N 3 6 30.12 1020 10 16 0.00 0.00
6:53 am 06:53 Sunny 65 18.3 56 13.3 73 73 NNE 3 6 30.14 1021 10 16 0.00 0.00
7:53 am 07:53 Sunny 70 21.1 55 12.8 59 59 WNW 6 9 30.15 1021 10 16 0.00 0.00
8:53 am 08:53 Sunny 74 23.3 56 13.3 54 54 Calm 30.15 1021 10 16 0.00 0.00
9:53 am 09:53 Sunny 78 25.6 57 13.9 48 48 Calm 30.15 1021 10 16 0.00 0.00
10:53 am 10:53 Sunny 82 27.8 56 13.3 41 41 SE 8 13 30.14 1021 10 16 0.00 0.00
11:53 am 11:53 Sunny 83 28.3 56 13.3 40 40 E 8 13 30.13 1020 10 16 0.00 0.00
12:53 pm 12:53 Sunny 85 29.4 56 13.3 37 37 E 8 13 30.12 1020 10 16 0.00 0.00
1:53 pm 13:53 Sunny 87 30.6 55 12.8 34 34 SSE 8 13 30.10 1019 10 16 0.00 0.00
2:53 pm 14:53 Sunny 89 31.7 54 12.2 30 30 undefined N/A 30.07 1018 10 16 0.00 0.00
3:53 pm 15:53 Sunny 89 31.7 52 11.1 28 28 VRB 7 11 30.07 1018 10 16 0.00 0.00
4:53 pm 16:53 Sunny 90 32.2 53 11.7 28 28 undefined N/A 30.04 1017 10 16 0.00 0.00
5:53 pm 17:53 Sunny 90 32.2 54 12.2 29 29 SE 12 19 30.03 1017 10 16 0.00 0.00
6:53 pm 18:53 Sunny 89 31.7 55 12.8 31 31 ESE 10 17 30.01 1016 10 16 0.00 0.00
7:53 pm 19:53 Sunny 84 28.9 58 14.4 41 41 ESE 9 15 30.01 1016 10 16 0.00 0.00
8:53 pm 20:53 Clear 81 27.2 54 12.2 39 39 SSW 9 15 30.00 1016 10 16 0.00 0.00
9:53 pm 21:53 Clear 76 24.4 52 11.1 43 43 SSE 6 9 30.03 1017 10 16 0.00 0.00
10:53 pm 22:53 Clear 70 21.1 55 12.8 59 59 undefined N/A 30.02 1017 10 16 0.00 0.00
11:53 pm 23:53 Mostly Clear 69 20.6 55 12.8 61 61 undefined N/A 30.03 1017 10 16 0.00 0.00

Powered by AerisWeather